TimeCST,TemperatureF,Dew PointF,Humidity,Sea Level PressureIn,VisibilityMPH,Wind Direction,Wind SpeedMPH,Gust SpeedMPH,PrecipitationIn,Events,Conditions,WindDirDegrees,DateUTC
12:15 AM,39.2,23.0,52,30.21,10.0,ESE,8.1,-,0.00,,Overcast,120,2013-01-25 06:15:00
12:35 AM,39.2,23.0,52,30.22,10.0,Calm,Calm,-,0.00,,Overcast,0,2013-01-25 06:35:00
12:55 AM,39.2,23.0,52,30.21,10.0,Calm,Calm,-,0.00,,Overcast,0,2013-01-25 06:55:00
1:15 AM,39.2,23.0,52,30.20,9.0,SE,6.9,-,0.00,,Overcast,130,2013-01-25 07:15:00
1:35 AM,39.2,23.0,52,30.19,10.0,SE,6.9,-,0.00,,Overcast,130,2013-01-25 07:35:00
1:55 AM,39.2,26.6,61,30.18,9.0,SE,4.6,-,0.00,,Overcast,140,2013-01-25 07:55:00
2:15 AM,39.2,24.8,56,30.17,9.0,SE,6.9,-,0.00,,Overcast,140,2013-01-25 08:15:00
2:35 AM,39.2,26.6,61,30.16,10.0,SSE,6.9,-,0.00,,Overcast,150,2013-01-25 08:35:00
2:55 AM,41.0,26.6,57,30.15,9.0,SE,8.1,-,0.00,,Overcast,130,2013-01-25 08:55:00
3:15 AM,41.0,26.6,57,30.13,10.0,SE,10.4,-,0.00,,Overcast,140,2013-01-25 09:15:00
3:35 AM,41.0,26.6,57,30.12,9.0,SE,10.4,-,0.00,,Overcast,140,2013-01-25 09:35:00
3:55 AM,42.8,28.4,57,30.11,9.0,SE,9.2,-,0.00,,Overcast,140,2013-01-25 09:55:00
4:15 AM,42.8,28.4,57,30.11,10.0,SE,6.9,-,0.00,,Overcast,140,2013-01-25 10:15:00
4:35 AM,42.8,30.2,61,30.11,10.0,SE,6.9,-,0.00,,Overcast,140,2013-01-25 10:35:00
4:55 AM,42.8,30.2,61,30.11,10.0,SSE,6.9,-,0.00,,Overcast,160,2013-01-25 10:55:00
5:15 AM,44.6,32.0,61,30.08,9.0,South,13.8,-,0.00,,Overcast,170,2013-01-25 11:15:00
5:35 AM,44.6,32.0,61,30.07,10.0,SSE,12.7,19.6,0.00,,Overcast,160,2013-01-25 11:35:00
5:55 AM,44.6,33.8,66,30.06,9.0,South,11.5,-,0.00,,Overcast,170,2013-01-25 11:55:00
6:50 AM,46.4,46.4,100,30.04,8.0,SSW,16.1,25.3,N/A,,Overcast,200,2013-01-25 12:50:00
8:50 AM,35.6,35.6,100,30.15,2.0,NNW,6.9,-,N/A,,Overcast,330,2013-01-25 14:50:00
9:50 AM,33.8,33.8,100,30.20,2.0,North,11.5,-,N/A,,Overcast,350,2013-01-25 15:50:00
10:50 AM,33.8,33.8,100,30.20,1.5,North,3.5,-,N/A,,Overcast,360,2013-01-25 16:50:00
11:50 AM,35.6,35.6,100,30.18,2.5,NNW,9.2,-,N/A,,Overcast,340,2013-01-25 17:50:00
12:50 PM,35.6,35.6,100,30.16,5.0,North,4.6,-,N/A,,Overcast,360,2013-01-25 18:50:00
1:28 PM,37.4,37.4,100,30.15,6.0,North,6.9,-,N/A,,Overcast,10,2013-01-25 19:28:00
1:50 PM,39.2,39.2,100,30.15,7.0,NNE,8.1,-,N/A,,Overcast,20,2013-01-25 19:50:00
2:50 PM,37.4,37.4,100,30.16,7.0,NNW,5.8,-,N/A,,Overcast,340,2013-01-25 20:50:00
4:50 PM,37.4,37.4,100,30.18,8.0,NNE,5.8,-,N/A,,Overcast,30,2013-01-25 22:50:00
5:50 PM,37.4,37.4,100,30.20,10.0,NNE,5.8,-,N/A,,Mostly Cloudy,30,2013-01-25 23:50:00
6:25 PM,35.6,35.6,100,30.21,10.0,NNE,4.6,-,N/A,,Mostly Cloudy,30,2013-01-26 00:25:00
6:50 PM,35.6,35.6,100,30.22,10.0,Calm,Calm,-,N/A,,Scattered Clouds,0,2013-01-26 00:50:00
7:50 PM,35.6,35.6,100,30.22,10.0,Calm,Calm,-,N/A,,Scattered Clouds,0,2013-01-26 01:50:00
8:15 PM,35.6,35.6,100,30.22,8.0,Calm,Calm,-,0.00,,Clear,0,2013-01-26 02:15:00
8:35 PM,35.6,35.6,100,30.22,8.0,Calm,Calm,-,0.00,,Clear,0,2013-01-26 02:35:00
8:55 PM,33.8,33.8,100,30.23,5.0,Calm,Calm,-,0.00,,Clear,0,2013-01-26 02:55:00
9:15 PM,33.8,33.8,100,30.22,6.0,Calm,Calm,-,0.00,,Clear,0,2013-01-26 03:15:00
9:35 PM,33.8,33.8,100,30.22,5.0,Calm,Calm,-,0.00,,Clear,0,2013-01-26 03:35:00
9:55 PM,33.8,33.8,100,30.23,6.0,Calm,Calm,-,0.00,,Clear,0,2013-01-26 03:55:00
10:15 PM,32.0,32.0,100,30.24,4.0,Calm,Calm,-,0.00,,Clear,0,2013-01-26 04:15:00
10:35 PM,32.0,32.0,100,30.24,5.0,Calm,Calm,-,0.00,,Clear,0,2013-01-26 04:35:00
10:55 PM,32.0,32.0,100,30.24,5.0,Calm,Calm,-,0.00,,Clear,0,2013-01-26 04:55:00
11:15 PM,32.0,32.0,100,30.25,3.0,Calm,Calm,-,0.00,,Clear,0,2013-01-26 05:15:00
11:35 PM,32.0,32.0,100,30.26,5.0,Calm,Calm,-,0.00,,Clear,0,2013-01-26 05:35:00
11:55 PM,32.0,32.0,100,30.26,3.0,Calm,Calm,-,0.00,,Clear,0,2013-01-26 05:55:00